Time,TemperatureF,DewpointF,PressureIn,WindDirection,WindDirectionDegrees,WindSpeedMPH,WindSpeedGustMPH,Humidity,HourlyPrecipIn,Conditions,Clouds,dailyrainin,SoftwareType,DateUTC
2013-02-09 00:00:00,16.9,14.7,29.60,NNW,343,4.0,15.0,91,0.03,,,0.75,meteohub,2013-02-09 05:00:00,
2013-02-09 00:01:00,16.9,14.7,29.61,West,277,10.0,15.0,91,0.03,,,0.75,meteohub,2013-02-09 05:01:00,
2013-02-09 00:06:00,17.1,14.9,29.60,West,273,2.0,10.0,91,0.02,,,0.00,meteohub,2013-02-09 05:06:00,
2013-02-09 00:11:00,16.9,14.7,29.61,NW,315,4.0,10.0,91,0.02,,,0.00,meteohub,2013-02-09 05:11:00,
2013-02-09 00:16:00,16.9,14.7,29.60,WNW,298,2.0,10.0,91,0.02,,,0.00,meteohub,2013-02-09 05:16:00,
2013-02-09 00:21:00,16.9,14.7,29.60,SE,126,1.0,10.0,91,0.03,,,0.01,meteohub,2013-02-09 05:21:00,
2013-02-09 00:26:00,16.9,14.7,29.60,NNW,327,3.0,10.0,91,0.03,,,0.01,meteohub,2013-02-09 05:26:00,
2013-02-09 00:31:00,16.9,14.7,29.59,NNE,14,5.0,10.0,91,0.02,,,0.01,meteohub,2013-02-09 05:31:00,
2013-02-09 00:36:00,16.7,14.5,29.59,West,268,4.0,10.0,91,0.02,,,0.01,meteohub,2013-02-09 05:36:00,
2013-02-09 00:41:00,16.5,14.4,29.58,NW,309,2.0,10.0,91,0.02,,,0.01,meteohub,2013-02-09 05:41:00,
2013-02-09 00:46:00,16.5,14.4,29.60,NNW,346,9.0,9.0,91,0.02,,,0.01,meteohub,2013-02-09 05:46:00,
2013-02-09 00:51:00,16.5,14.4,29.59,NW,306,6.0,11.0,91,0.02,,,0.01,meteohub,2013-02-09 05:51:00,
2013-02-09 00:56:00,16.5,14.4,29.60,NW,324,2.0,11.0,91,0.01,,,0.01,meteohub,2013-02-09 05:56:00,
2013-02-09 01:01:00,16.5,14.4,29.60,NW,315,4.0,11.0,91,0.01,,,0.01,meteohub,2013-02-09 06:01:00,
2013-02-09 01:06:00,16.5,14.4,29.60,NNW,342,8.0,8.0,91,0.01,,,0.01,meteohub,2013-02-09 06:06:00,
2013-02-09 01:11:00,16.5,14.4,29.60,NW,316,6.0,10.0,91,0.01,,,0.01,meteohub,2013-02-09 06:11:00,
2013-02-09 01:16:00,16.3,14.2,29.60,NW,320,4.0,10.0,91,0.01,,,0.01,meteohub,2013-02-09 06:16:00,
2013-02-09 01:21:00,16.3,14.2,29.61,NW,304,5.0,10.0,91,0.00,,,0.01,meteohub,2013-02-09 06:21:00,
2013-02-09 01:26:00,16.2,14.0,29.61,NNW,331,8.0,9.0,91,0.00,,,0.01,meteohub,2013-02-09 06:26:00,
2013-02-09 01:31:00,16.2,14.0,29.61,WNW,284,4.0,12.0,91,0.00,,,0.01,meteohub,2013-02-09 06:31:00,
2013-02-09 01:36:00,16.2,14.0,29.62,NNW,342,5.0,12.0,91,0.00,,,0.01,meteohub,2013-02-09 06:36:00,
2013-02-09 01:41:00,16.0,13.8,29.62,WNW,289,5.0,11.0,91,0.00,,,0.01,meteohub,2013-02-09 06:41:00,
2013-02-09 01:46:00,16.0,13.8,29.62,NW,313,1.0,11.0,91,0.00,,,0.01,meteohub,2013-02-09 06:46:00,
2013-02-09 01:51:00,16.0,13.8,29.62,NW,318,8.0,12.0,91,0.00,,,0.01,meteohub,2013-02-09 06:51:00,
2013-02-09 01:56:00,16.0,13.8,29.62,WNW,299,3.0,12.0,91,0.01,,,0.02,meteohub,2013-02-09 06:56:00,
2013-02-09 02:01:00,16.0,13.8,29.62,WNW,298,8.0,12.0,91,0.01,,,0.02,meteohub,2013-02-09 07:01:00,
2013-02-09 02:06:00,16.0,13.8,29.62,West,266,1.0,11.0,91,0.01,,,0.02,meteohub,2013-02-09 07:06:00,
2013-02-09 02:11:00,16.0,13.8,29.62,WNW,296,4.0,17.0,91,0.01,,,0.02,meteohub,2013-02-09 07:11:00,
2013-02-09 02:16:00,16.2,14.0,29.62,WNW,291,7.0,17.0,91,0.01,,,0.02,meteohub,2013-02-09 07:16:00,
2013-02-09 02:21:00,16.2,14.0,29.62,NW,320,6.0,14.0,91,0.01,,,0.02,meteohub,2013-02-09 07:21:00,
2013-02-09 02:26:00,16.2,14.0,29.61,NNE,20,3.0,14.0,91,0.01,,,0.02,meteohub,2013-02-09 07:26:00,
2013-02-09 02:32:00,16.2,14.0,29.62,ESE,107,2.0,9.0,91,0.01,,,0.02,meteohub,2013-02-09 07:32:00,
2013-02-09 02:37:00,16.3,14.2,29.62,NW,325,5.0,9.0,91,0.01,,,0.02,meteohub,2013-02-09 07:37:00,
2013-02-09 02:42:00,16.3,14.2,29.62,North,0,4.0,11.0,91,0.01,,,0.02,meteohub,2013-02-09 07:42:00,
2013-02-09 02:47:00,16.3,14.2,29.62,East,82,1.0,11.0,91,0.01,,,0.02,meteohub,2013-02-09 07:47:00,
2013-02-09 02:52:00,16.3,14.2,29.62,NW,313,4.0,9.0,91,0.01,,,0.02,meteohub,2013-02-09 07:52:00,
2013-02-09 02:57:00,16.3,14.2,29.62,NNW,336,5.0,8.0,91,0.00,,,0.02,meteohub,2013-02-09 07:57:00,
2013-02-09 03:02:00,16.3,14.2,29.62,NW,325,3.0,16.0,91,0.00,,,0.02,meteohub,2013-02-09 08:02:00,
2013-02-09 03:07:00,16.5,14.4,29.61,WNW,296,3.0,16.0,91,0.00,,,0.02,meteohub,2013-02-09 08:07:00,
2013-02-09 03:12:00,16.5,14.4,29.61,ESE,117,2.0,11.0,91,0.00,,,0.02,meteohub,2013-02-09 08:12:00,
2013-02-09 03:17:00,16.9,14.9,29.62,NW,310,3.0,11.0,92,0.01,,,0.03,meteohub,2013-02-09 08:17:00,
2013-02-09 03:22:00,16.9,14.7,29.62,WNW,294,5.0,11.0,91,0.01,,,0.03,meteohub,2013-02-09 08:22:00,
2013-02-09 03:27:00,17.1,14.9,29.62,NW,313,6.0,12.0,91,0.01,,,0.03,meteohub,2013-02-09 08:27:00,
2013-02-09 03:32:00,17.1,15.1,29.62,NNW,340,4.0,12.0,92,0.01,,,0.03,meteohub,2013-02-09 08:32:00,
2013-02-09 03:37:00,17.2,15.3,29.62,WNW,292,5.0,12.0,92,0.01,,,0.03,meteohub,2013-02-09 08:37:00,
2013-02-09 03:42:00,17.2,15.3,29.62,WNW,300,3.0,12.0,92,0.01,,,0.03,meteohub,2013-02-09 08:42:00,
2013-02-09 03:47:00,17.4,15.4,29.63,NW,323,5.0,12.0,92,0.01,,,0.03,meteohub,2013-02-09 08:47:00,
2013-02-09 03:52:00,17.6,15.6,29.64,NNW,344,3.0,11.0,92,0.01,,,0.03,meteohub,2013-02-09 08:52:00,
2013-02-09 03:57:00,17.8,15.8,29.63,WNW,303,5.0,11.0,92,0.01,,,0.03,meteohub,2013-02-09 08:57:00,
2013-02-09 04:02:00,18.0,16.0,29.63,NNW,328,1.0,11.0,92,0.01,,,0.03,meteohub,2013-02-09 09:02:00,
2013-02-09 04:07:00,18.1,16.2,29.64,NNE,30,2.0,11.0,92,0.01,,,0.03,meteohub,2013-02-09 09:07:00,
2013-02-09 04:12:00,18.3,16.3,29.62,West,281,3.0,11.0,92,0.00,,,0.03,meteohub,2013-02-09 09:12:00,
2013-02-09 04:17:00,18.3,16.3,29.63,WSW,248,4.0,9.0,92,0.00,,,0.03,meteohub,2013-02-09 09:17:00,
2013-02-09 04:22:00,18.5,16.5,29.64,NW,323,1.0,8.0,92,0.00,,,0.03,meteohub,2013-02-09 09:22:00,
2013-02-09 04:27:00,18.7,16.7,29.63,NW,311,2.0,8.0,92,0.00,,,0.03,meteohub,2013-02-09 09:27:00,
2013-02-09 04:32:00,18.9,16.9,29.63,NW,321,5.0,8.0,92,0.00,,,0.03,meteohub,2013-02-09 09:32:00,
2013-02-09 04:37:00,18.9,16.9,29.62,WNW,302,4.0,10.0,92,0.00,,,0.03,meteohub,2013-02-09 09:37:00,
2013-02-09 04:42:00,19.0,17.1,29.63,North,355,2.0,14.0,92,0.00,,,0.03,meteohub,2013-02-09 09:42:00,
2013-02-09 04:47:00,19.2,17.2,29.63,NW,322,3.0,14.0,92,0.00,,,0.03,meteohub,2013-02-09 09:47:00,
2013-02-09 04:52:00,19.4,17.4,29.62,WNW,294,5.0,14.0,92,0.00,,,0.03,meteohub,2013-02-09 09:52:00,
2013-02-09 04:57:00,19.4,17.4,29.64,NNW,327,5.0,13.0,92,0.00,,,0.03,meteohub,2013-02-09 09:57:00,
2013-02-09 05:02:00,19.6,17.6,29.64,NW,318,3.0,13.0,92,0.00,,,0.03,meteohub,2013-02-09 10:02:00,
2013-02-09 05:07:00,19.6,17.6,29.64,North,355,3.0,14.0,92,0.00,,,0.03,meteohub,2013-02-09 10:07:00,
2013-02-09 05:12:00,19.6,17.6,29.64,WNW,298,2.0,14.0,92,0.00,,,0.03,meteohub,2013-02-09 10:12:00,
2013-02-09 05:17:00,19.6,17.6,29.64,North,350,1.0,8.0,92,0.00,,,0.03,meteohub,2013-02-09 10:17:00,
2013-02-09 05:22:00,19.6,17.6,29.64,NNW,332,6.0,10.0,92,0.00,,,0.03,meteohub,2013-02-09 10:22:00,
2013-02-09 05:27:00,19.8,17.8,29.64,WNW,293,2.0,10.0,92,0.00,,,0.03,meteohub,2013-02-09 10:27:00,
2013-02-09 05:32:00,19.8,17.8,29.64,NNW,342,5.0,11.0,92,0.00,,,0.03,meteohub,2013-02-09 10:32:00,
2013-02-09 05:37:00,19.8,17.8,29.64,West,281,6.0,11.0,92,0.00,,,0.03,meteohub,2013-02-09 10:37:00,
2013-02-09 05:42:00,19.9,18.3,29.65,NW,306,6.0,15.0,93,0.00,,,0.03,meteohub,2013-02-09 10:42:00,
2013-02-09 05:47:00,19.9,18.0,29.65,WNW,297,3.0,15.0,92,0.00,,,0.03,meteohub,2013-02-09 10:47:00,
2013-02-09 05:52:00,19.9,18.0,29.65,NW,326,2.0,13.0,92,0.00,,,0.03,meteohub,2013-02-09 10:52:00,
2013-02-09 05:57:00,20.1,18.1,29.65,WNW,302,5.0,10.0,92,0.00,,,0.03,meteohub,2013-02-09 10:57:00,
2013-02-09 06:02:00,20.1,18.1,29.66,WNW,296,1.0,10.0,92,0.00,,,0.03,meteohub,2013-02-09 11:02:00,
2013-02-09 06:07:00,20.1,18.1,29.65,NW,319,3.0,10.0,92,0.00,,,0.03,meteohub,2013-02-09 11:07:00,
2013-02-09 06:12:00,20.1,18.1,29.66,NNW,343,5.0,13.0,92,0.00,,,0.03,meteohub,2013-02-09 11:12:00,
2013-02-09 06:17:00,19.9,18.0,29.66,WNW,298,2.0,13.0,92,0.00,,,0.03,meteohub,2013-02-09 11:17:00,
2013-02-09 06:22:00,19.8,17.8,29.66,NNW,327,4.0,13.0,92,0.00,,,0.03,meteohub,2013-02-09 11:22:00,
2013-02-09 06:27:00,19.8,17.8,29.67,NW,304,5.0,13.0,92,0.00,,,0.03,meteohub,2013-02-09 11:27:00,
2013-02-09 06:32:00,19.8,17.8,29.67,WNW,298,3.0,12.0,92,0.00,,,0.03,meteohub,2013-02-09 11:32:00,
2013-02-09 06:37:00,19.6,17.6,29.67,NW,321,5.0,12.0,92,0.00,,,0.03,meteohub,2013-02-09 11:37:00,
2013-02-09 06:42:00,19.6,17.6,29.67,WNW,290,5.0,12.0,92,0.00,,,0.03,meteohub,2013-02-09 11:42:00,
2013-02-09 06:47:00,19.6,17.6,29.68,NNW,334,3.0,12.0,92,0.00,,,0.03,meteohub,2013-02-09 11:47:00,
2013-02-09 06:52:00,19.6,17.6,29.68,West,261,3.0,12.0,92,0.00,,,0.03,meteohub,2013-02-09 11:52:00,
2013-02-09 06:57:00,19.8,17.8,29.68,WNW,292,5.0,10.0,92,0.00,,,0.03,meteohub,2013-02-09 11:57:00,
2013-02-09 07:02:00,19.8,17.8,29.68,NW,309,5.0,10.0,92,0.00,,,0.03,meteohub,2013-02-09 12:02:00,
2013-02-09 07:07:00,19.8,17.8,29.69,WNW,297,3.0,10.0,92,0.00,,,0.03,meteohub,2013-02-09 12:07:00,
2013-02-09 07:12:00,19.8,17.8,29.69,NW,311,4.0,10.0,92,0.00,,,0.03,meteohub,2013-02-09 12:12:00,
2013-02-09 07:17:00,19.8,17.8,29.69,NW,314,3.0,14.0,92,0.00,,,0.03,meteohub,2013-02-09 12:17:00,
2013-02-09 07:22:00,19.8,17.8,29.69,NW,321,3.0,14.0,92,0.00,,,0.03,meteohub,2013-02-09 12:22:00,
2013-02-09 07:27:00,19.8,17.8,29.69,WNW,302,2.0,15.0,92,0.00,,,0.03,meteohub,2013-02-09 12:27:00,
2013-02-09 07:32:00,19.9,18.0,29.70,NNW,338,4.0,15.0,92,0.00,,,0.03,meteohub,2013-02-09 12:32:00,
2013-02-09 07:37:00,19.9,18.0,29.70,NNW,336,4.0,15.0,92,0.00,,,0.03,meteohub,2013-02-09 12:37:00,
2013-02-09 07:42:00,19.8,17.8,29.70,NW,306,4.0,9.0,92,0.00,,,0.03,meteohub,2013-02-09 12:42:00,
2013-02-09 07:47:00,19.8,17.8,29.70,NW,306,1.0,9.0,92,0.00,,,0.03,meteohub,2013-02-09 12:47:00,
2013-02-09 07:52:00,19.8,17.8,29.71,NW,304,4.0,9.0,92,0.00,,,0.03,meteohub,2013-02-09 12:52:00,
2013-02-09 07:57:00,19.8,17.8,29.71,WNW,287,3.0,9.0,92,0.00,,,0.03,meteohub,2013-02-09 12:57:00,
2013-02-09 08:02:00,19.8,17.8,29.72,WNW,296,4.0,8.0,92,0.00,,,0.03,meteohub,2013-02-09 13:02:00,
2013-02-09 08:07:00,19.6,17.6,29.72,WNW,290,4.0,8.0,92,0.00,,,0.03,meteohub,2013-02-09 13:07:00,
2013-02-09 08:12:00,19.6,17.6,29.72,NNW,330,4.0,8.0,92,0.00,,,0.03,meteohub,2013-02-09 13:12:00,
2013-02-09 08:17:00,19.6,17.6,29.72,WNW,292,3.0,8.0,92,0.00,,,0.03,meteohub,2013-02-09 13:17:00,
2013-02-09 08:22:00,19.4,17.4,29.72,WNW,284,4.0,7.0,92,0.00,,,0.03,meteohub,2013-02-09 13:22:00,
2013-02-09 08:27:00,19.2,17.2,29.73,WNW,302,4.0,8.0,92,0.00,,,0.03,meteohub,2013-02-09 13:27:00,
2013-02-09 08:32:00,19.0,17.1,29.73,NW,307,3.0,9.0,92,0.00,,,0.03,meteohub,2013-02-09 13:32:00,
2013-02-09 08:37:00,19.0,17.1,29.73,NNW,333,5.0,9.0,92,0.00,,,0.03,meteohub,2013-02-09 13:37:00,
2013-02-09 08:42:00,19.0,17.1,29.73,NW,319,2.0,11.0,92,0.00,,,0.03,meteohub,2013-02-09 13:42:00,
2013-02-09 08:47:00,18.9,16.9,29.73,NW,307,4.0,11.0,92,0.00,,,0.03,meteohub,2013-02-09 13:47:00,
2013-02-09 08:52:00,18.9,16.7,29.73,WNW,295,6.0,11.0,91,0.00,,,0.03,meteohub,2013-02-09 13:52:00,
2013-02-09 08:57:00,18.9,16.7,29.74,WNW,285,5.0,8.0,91,0.00,,,0.03,meteohub,2013-02-09 13:57:00,
2013-02-09 09:02:00,18.9,16.7,29.74,WNW,293,4.0,9.0,91,0.00,,,0.03,meteohub,2013-02-09 14:02:00,
2013-02-09 09:07:00,18.7,16.5,29.74,NW,315,2.0,9.0,91,0.00,,,0.03,meteohub,2013-02-09 14:07:00,
2013-02-09 09:12:00,18.7,16.5,29.75,NNW,337,6.0,9.0,91,0.00,,,0.03,meteohub,2013-02-09 14:12:00,
2013-02-09 09:17:00,18.7,16.5,29.75,WNW,302,4.0,7.0,91,0.00,,,0.03,meteohub,2013-02-09 14:17:00,
2013-02-09 09:22:00,18.3,16.2,29.75,NW,309,2.0,9.0,91,0.00,,,0.03,meteohub,2013-02-09 14:22:00,
2013-02-09 09:27:00,18.3,16.2,29.75,West,281,5.0,9.0,91,0.00,,,0.03,meteohub,2013-02-09 14:27:00,
2013-02-09 09:32:00,18.3,16.2,29.76,NW,307,5.0,7.0,91,0.00,,,0.03,meteohub,2013-02-09 14:32:00,
2013-02-09 09:37:00,18.1,16.0,29.76,WNW,302,3.0,9.0,91,0.00,,,0.03,meteohub,2013-02-09 14:37:00,
2013-02-09 09:42:00,18.0,15.8,29.77,NW,321,4.0,9.0,91,0.00,,,0.03,meteohub,2013-02-09 14:42:00,
2013-02-09 09:47:00,18.0,15.8,29.77,NW,318,2.0,9.0,91,0.00,,,0.03,meteohub,2013-02-09 14:47:00,
2013-02-09 09:52:00,18.0,15.8,29.77,West,278,4.0,8.0,91,0.00,,,0.03,meteohub,2013-02-09 14:52:00,
2013-02-09 09:57:00,18.0,15.4,29.78,NW,309,2.0,8.0,90,0.00,,,0.03,meteohub,2013-02-09 14:57:00,
2013-02-09 10:02:00,18.0,15.4,29.78,WNW,303,3.0,8.0,90,0.00,,,0.03,meteohub,2013-02-09 15:02:00,
2013-02-09 10:07:00,18.0,15.4,29.78,NW,311,1.0,9.0,90,0.00,,,0.03,meteohub,2013-02-09 15:07:00,
2013-02-09 10:12:00,18.0,15.4,29.78,West,275,7.0,9.0,90,0.00,,,0.03,meteohub,2013-02-09 15:12:00,
2013-02-09 10:17:00,18.0,15.4,29.79,West,263,7.0,9.0,90,0.00,,,0.03,meteohub,2013-02-09 15:17:00,
2013-02-09 10:22:00,18.1,15.6,29.79,WSW,243,4.0,9.0,90,0.00,,,0.03,meteohub,2013-02-09 15:22:00,
2013-02-09 10:27:00,18.1,15.4,29.79,NNW,343,5.0,9.0,89,0.00,,,0.03,meteohub,2013-02-09 15:27:00,
2013-02-09 10:32:00,18.1,15.4,29.79,WNW,300,2.0,11.0,89,0.00,,,0.03,meteohub,2013-02-09 15:32:00,
2013-02-09 10:37:00,18.1,15.4,29.80,NNW,327,5.0,11.0,89,0.00,,,0.03,meteohub,2013-02-09 15:37:00,
2013-02-09 10:42:00,18.1,15.3,29.80,WNW,296,3.0,11.0,88,0.00,,,0.03,meteohub,2013-02-09 15:42:00,
2013-02-09 10:47:00,18.5,15.6,29.80,WNW,303,2.0,9.0,88,0.00,,,0.03,meteohub,2013-02-09 15:47:00,
2013-02-09 10:52:00,18.7,15.8,29.80,WNW,297,2.0,9.0,88,0.00,,,0.03,meteohub,2013-02-09 15:52:00,
2013-02-09 10:57:00,19.0,16.2,29.80,NW,316,3.0,8.0,88,0.00,,,0.03,meteohub,2013-02-09 15:57:00,
2013-02-09 11:02:00,19.2,16.0,29.81,NW,313,8.0,8.0,87,0.00,,,0.03,meteohub,2013-02-09 16:02:00,
2013-02-09 11:07:00,19.4,16.2,29.81,NW,305,2.0,9.0,87,0.00,,,0.03,meteohub,2013-02-09 16:07:00,
2013-02-09 11:12:00,19.6,16.3,29.81,NNW,327,3.0,9.0,87,0.00,,,0.03,meteohub,2013-02-09 16:12:00,
2013-02-09 11:17:00,19.8,16.3,29.81,WNW,284,2.0,12.0,86,0.00,,,0.03,meteohub,2013-02-09 16:17:00,
2013-02-09 11:22:00,19.9,16.5,29.81,WNW,288,5.0,12.0,86,0.00,,,0.03,meteohub,2013-02-09 16:22:00,
2013-02-09 11:27:00,19.9,16.2,29.81,WNW,290,5.0,12.0,85,0.00,,,0.03,meteohub,2013-02-09 16:27:00,
2013-02-09 11:32:00,19.9,16.5,29.81,WNW,296,3.0,10.0,86,0.00,,,0.03,meteohub,2013-02-09 16:32:00,
2013-02-09 11:37:00,20.1,16.3,29.81,NW,306,2.0,11.0,85,0.00,,,0.03,meteohub,2013-02-09 16:37:00,
2013-02-09 11:42:00,20.5,16.3,29.81,WNW,288,5.0,11.0,84,0.00,,,0.03,meteohub,2013-02-09 16:42:00,
2013-02-09 11:47:00,20.8,16.7,29.81,NW,306,3.0,10.0,84,0.00,,,0.03,meteohub,2013-02-09 16:47:00,
2013-02-09 11:52:00,21.2,17.1,29.81,NW,304,4.0,14.0,84,0.00,,,0.03,meteohub,2013-02-09 16:52:00,
2013-02-09 11:57:00,21.2,16.9,29.82,North,10,2.0,14.0,83,0.00,,,0.03,meteohub,2013-02-09 16:57:00,
2013-02-09 12:02:00,21.4,16.7,29.82,NW,315,2.0,14.0,82,0.00,,,0.03,meteohub,2013-02-09 17:02:00,
2013-02-09 12:07:00,21.6,17.2,29.82,West,272,3.0,10.0,83,0.00,,,0.03,meteohub,2013-02-09 17:07:00,
2013-02-09 12:12:00,21.9,17.1,29.83,WNW,296,5.0,10.0,81,0.00,,,0.03,meteohub,2013-02-09 17:12:00,
2013-02-09 12:17:00,21.9,17.2,29.83,WNW,298,4.0,10.0,82,0.01,,,0.04,meteohub,2013-02-09 17:17:00,
2013-02-09 12:22:00,21.7,17.1,29.83,NW,324,6.0,10.0,82,0.01,,,0.04,meteohub,2013-02-09 17:22:00,
2013-02-09 12:27:00,21.9,17.1,29.83,WNW,302,3.0,13.0,81,0.01,,,0.04,meteohub,2013-02-09 17:27:00,
2013-02-09 12:32:00,21.9,17.1,29.84,NW,306,5.0,13.0,81,0.01,,,0.04,meteohub,2013-02-09 17:32:00,
2013-02-09 12:37:00,21.7,17.1,29.84,NW,315,4.0,13.0,82,0.01,,,0.04,meteohub,2013-02-09 17:37:00,
2013-02-09 12:42:00,21.9,17.1,29.84,WNW,299,4.0,10.0,81,0.01,,,0.04,meteohub,2013-02-09 17:42:00,
2013-02-09 12:47:00,21.9,17.6,29.84,WNW,288,7.0,11.0,83,0.01,,,0.04,meteohub,2013-02-09 17:47:00,
2013-02-09 12:52:00,21.9,17.1,29.85,WNW,285,4.0,11.0,81,0.01,,,0.04,meteohub,2013-02-09 17:52:00,
2013-02-09 12:57:00,22.3,17.4,29.85,WNW,296,5.0,12.0,81,0.01,,,0.04,meteohub,2013-02-09 17:57:00,
2013-02-09 13:02:00,22.5,17.2,29.85,WNW,302,6.0,12.0,80,0.02,,,0.05,meteohub,2013-02-09 18:02:00,
2013-02-09 13:07:00,22.3,17.6,29.86,NW,305,6.0,10.0,82,0.02,,,0.05,meteohub,2013-02-09 18:07:00,
2013-02-09 13:12:00,21.7,17.1,29.86,WNW,286,5.0,10.0,82,0.02,,,0.05,meteohub,2013-02-09 18:12:00,
2013-02-09 13:17:00,21.4,16.7,29.86,WNW,295,5.0,13.0,82,0.02,,,0.06,meteohub,2013-02-09 18:17:00,
2013-02-09 13:22:00,21.4,16.7,29.86,NW,319,8.0,13.0,82,0.02,,,0.06,meteohub,2013-02-09 18:22:00,
2013-02-09 13:27:00,21.4,17.1,29.86,NW,318,7.0,13.0,83,0.02,,,0.06,meteohub,2013-02-09 18:27:00,
2013-02-09 13:32:00,21.9,17.1,29.86,WNW,293,4.0,11.0,81,0.02,,,0.06,meteohub,2013-02-09 18:32:00,
2013-02-09 13:37:00,22.3,17.4,29.87,NNW,344,3.0,11.0,81,0.02,,,0.06,meteohub,2013-02-09 18:37:00,
2013-02-09 13:42:00,21.9,17.1,29.87,WNW,291,5.0,16.0,81,0.02,,,0.06,meteohub,2013-02-09 18:42:00,
2013-02-09 13:47:00,21.7,17.1,29.88,NW,317,4.0,16.0,82,0.02,,,0.06,meteohub,2013-02-09 18:47:00,
2013-02-09 13:52:00,21.6,17.2,29.88,NNW,335,6.0,16.0,83,0.02,,,0.06,meteohub,2013-02-09 18:52:00,
2013-02-09 13:57:00,21.7,16.9,29.88,WNW,288,6.0,11.0,81,0.01,,,0.06,meteohub,2013-02-09 18:57:00,
2013-02-09 14:02:00,21.7,16.9,29.89,NW,319,4.0,11.0,81,0.01,,,0.06,meteohub,2013-02-09 19:02:00,
2013-02-09 14:07:00,21.9,17.1,29.89,WNW,300,5.0,11.0,81,0.01,,,0.06,meteohub,2013-02-09 19:07:00,
2013-02-09 14:12:00,21.7,17.1,29.89,NW,309,6.0,11.0,82,0.01,,,0.06,meteohub,2013-02-09 19:12:00,
2013-02-09 14:17:00,21.6,16.7,29.90,NW,309,2.0,11.0,81,0.01,,,0.07,meteohub,2013-02-09 19:17:00,
2013-02-09 14:22:00,21.6,16.7,29.90,WNW,298,6.0,11.0,81,0.01,,,0.07,meteohub,2013-02-09 19:22:00,
2013-02-09 14:27:00,21.4,16.7,29.90,NW,316,6.0,10.0,82,0.01,,,0.07,meteohub,2013-02-09 19:27:00,
2013-02-09 14:32:00,21.9,16.7,29.91,WNW,295,3.0,10.0,80,0.01,,,0.07,meteohub,2013-02-09 19:32:00,
2013-02-09 14:37:00,22.8,17.6,29.91,NNW,329,2.0,10.0,80,0.01,,,0.07,meteohub,2013-02-09 19:37:00,
2013-02-09 14:42:00,23.2,17.6,29.91,NW,304,5.0,8.0,79,0.01,,,0.07,meteohub,2013-02-09 19:42:00,
2013-02-09 14:47:00,23.2,17.4,29.92,NW,305,7.0,7.0,78,0.01,,,0.07,meteohub,2013-02-09 19:47:00,
2013-02-09 14:52:00,23.2,17.4,29.92,NW,323,3.0,9.0,78,0.01,,,0.07,meteohub,2013-02-09 19:52:00,
2013-02-09 14:57:00,23.2,17.4,29.92,NW,316,2.0,9.0,78,0.01,,,0.07,meteohub,2013-02-09 19:57:00,
2013-02-09 15:02:00,23.2,17.6,29.93,NW,307,4.0,9.0,79,0.01,,,0.07,meteohub,2013-02-09 20:02:00,
2013-02-09 15:07:00,22.6,17.1,29.93,NW,315,4.0,9.0,79,0.01,,,0.07,meteohub,2013-02-09 20:07:00,
2013-02-09 15:12:00,22.5,16.9,29.94,WNW,285,4.0,9.0,79,0.01,,,0.07,meteohub,2013-02-09 20:12:00,
2013-02-09 15:17:00,22.5,16.3,29.94,NW,313,7.0,10.0,77,0.00,,,0.07,meteohub,2013-02-09 20:17:00,
2013-02-09 15:22:00,22.5,16.3,29.94,WNW,293,4.0,10.0,77,0.00,,,0.07,meteohub,2013-02-09 20:22:00,
2013-02-09 15:27:00,22.5,16.0,29.95,NW,315,3.0,10.0,76,0.00,,,0.07,meteohub,2013-02-09 20:27:00,
2013-02-09 15:32:00,22.5,16.3,29.95,WNW,301,4.0,7.0,77,0.01,,,0.08,meteohub,2013-02-09 20:32:00,
2013-02-09 15:37:00,22.6,16.2,29.96,NNW,335,1.0,8.0,76,0.01,,,0.08,meteohub,2013-02-09 20:37:00,
2013-02-09 15:42:00,22.6,16.5,29.96,WNW,286,3.0,10.0,77,0.01,,,0.08,meteohub,2013-02-09 20:42:00,
2013-02-09 15:47:00,22.8,16.3,29.96,WNW,295,1.0,10.0,76,0.01,,,0.08,meteohub,2013-02-09 20:47:00,
2013-02-09 15:52:00,23.2,16.7,29.96,NW,307,2.0,10.0,76,0.01,,,0.08,meteohub,2013-02-09 20:52:00,
2013-02-09 15:57:00,23.2,17.1,29.96,WNW,288,7.0,9.0,77,0.01,,,0.08,meteohub,2013-02-09 20:57:00,
2013-02-09 16:02:00,22.8,17.1,29.97,NW,317,5.0,9.0,78,0.01,,,0.08,meteohub,2013-02-09 21:02:00,
2013-02-09 16:07:00,22.8,16.7,29.97,NW,313,3.0,10.0,77,0.01,,,0.08,meteohub,2013-02-09 21:07:00,
2013-02-09 16:12:00,23.0,16.9,29.97,West,275,3.0,10.0,77,0.01,,,0.08,meteohub,2013-02-09 21:12:00,
2013-02-09 16:17:00,23.2,16.7,29.97,West,263,3.0,10.0,76,0.01,,,0.08,meteohub,2013-02-09 21:17:00,
2013-02-09 16:22:00,23.0,16.9,29.97,NW,307,3.0,9.0,77,0.01,,,0.08,meteohub,2013-02-09 21:22:00,
2013-02-09 16:27:00,22.8,16.3,29.97,NNW,344,1.0,8.0,76,0.01,,,0.08,meteohub,2013-02-09 21:27:00,
2013-02-09 16:32:00,22.6,16.5,29.97,WNW,300,9.0,9.0,77,0.00,,,0.08,meteohub,2013-02-09 21:32:00,
2013-02-09 16:37:00,22.3,16.5,29.98,WNW,297,6.0,12.0,78,0.00,,,0.08,meteohub,2013-02-09 21:37:00,
2013-02-09 16:42:00,21.9,16.3,29.99,WNW,303,1.0,12.0,79,0.00,,,0.08,meteohub,2013-02-09 21:42:00,
2013-02-09 16:47:00,21.7,15.3,29.99,NNW,331,2.0,12.0,76,0.00,,,0.08,meteohub,2013-02-09 21:47:00,
2013-02-09 16:52:00,21.6,15.8,29.99,NNW,329,5.0,12.0,78,0.01,,,0.09,meteohub,2013-02-09 21:52:00,
2013-02-09 16:57:00,21.4,15.8,29.99,NW,306,7.0,12.0,79,0.01,,,0.09,meteohub,2013-02-09 21:57:00,
2013-02-09 17:02:00,21.2,14.9,30.00,NW,321,3.0,11.0,76,0.01,,,0.09,meteohub,2013-02-09 22:02:00,
2013-02-09 17:07:00,20.8,14.7,30.00,NNW,327,4.0,11.0,77,0.01,,,0.09,meteohub,2013-02-09 22:07:00,
2013-02-09 17:12:00,20.8,14.7,30.01,NNE,26,3.0,11.0,77,0.01,,,0.09,meteohub,2013-02-09 22:12:00,
2013-02-09 17:17:00,20.7,14.4,30.01,NNW,343,5.0,11.0,76,0.01,,,0.09,meteohub,2013-02-09 22:17:00,
2013-02-09 17:22:00,20.7,14.4,30.02,WSW,242,4.0,10.0,76,0.01,,,0.09,meteohub,2013-02-09 22:22:00,
2013-02-09 17:27:00,20.5,14.4,30.03,NW,315,5.0,10.0,77,0.01,,,0.09,meteohub,2013-02-09 22:27:00,
2013-02-09 17:32:00,20.3,14.0,30.03,NW,313,0.0,10.0,76,0.01,,,0.09,meteohub,2013-02-09 22:32:00,
2013-02-09 17:37:00,20.1,13.8,30.04,NW,309,4.0,9.0,76,0.01,,,0.09,meteohub,2013-02-09 22:37:00,
2013-02-09 17:42:00,20.1,13.5,30.04,NW,309,1.0,9.0,75,0.01,,,0.09,meteohub,2013-02-09 22:42:00,
2013-02-09 17:47:00,19.8,13.5,30.04,WNW,295,2.0,7.0,76,0.01,,,0.09,meteohub,2013-02-09 22:47:00,
2013-02-09 17:52:00,19.6,13.6,30.04,WNW,299,3.0,7.0,77,0.00,,,0.09,meteohub,2013-02-09 22:52:00,
2013-02-09 17:57:00,19.2,13.3,30.05,West,281,3.0,7.0,77,0.00,,,0.09,meteohub,2013-02-09 22:57:00,
2013-02-09 18:02:00,19.0,12.7,30.05,WNW,299,3.0,8.0,76,0.00,,,0.09,meteohub,2013-02-09 23:02:00,
2013-02-09 18:07:00,18.9,12.9,30.06,NW,315,7.0,9.0,77,0.00,,,0.09,meteohub,2013-02-09 23:07:00,
2013-02-09 18:12:00,18.7,12.7,30.06,NW,315,2.0,9.0,77,0.00,,,0.09,meteohub,2013-02-09 23:12:00,
2013-02-09 18:17:00,18.3,12.0,30.07,NW,315,7.0,9.0,76,0.00,,,0.09,meteohub,2013-02-09 23:17:00,
2013-02-09 18:22:00,18.1,11.5,30.06,WNW,294,3.0,8.0,75,0.00,,,0.09,meteohub,2013-02-09 23:22:00,
2013-02-09 18:27:00,18.0,12.0,30.07,WNW,295,1.0,8.0,77,0.00,,,0.09,meteohub,2013-02-09 23:27:00,
2013-02-09 18:32:00,17.8,11.8,30.07,WNW,300,5.0,8.0,77,0.00,,,0.09,meteohub,2013-02-09 23:32:00,
2013-02-09 18:37:00,17.8,11.5,30.08,NW,305,1.0,6.0,76,0.00,,,0.09,meteohub,2013-02-09 23:37:00,
2013-02-09 18:42:00,17.4,11.1,30.08,WNW,298,2.0,6.0,76,0.00,,,0.09,meteohub,2013-02-09 23:42:00,
2013-02-09 18:47:00,17.2,11.3,30.09,NW,311,2.0,7.0,77,0.00,,,0.09,meteohub,2013-02-09 23:47:00,
2013-02-09 18:52:00,17.2,11.3,30.09,NW,312,5.0,7.0,77,0.00,,,0.09,meteohub,2013-02-09 23:52:00,
2013-02-09 18:57:00,17.2,11.3,30.09,WNW,299,3.0,7.0,77,0.00,,,0.09,meteohub,2013-02-09 23:57:00,
2013-02-09 19:02:00,17.1,11.5,30.09,NW,315,2.0,11.0,78,0.00,,,0.09,meteohub,2013-02-10 00:02:00,
2013-02-09 19:07:00,17.1,11.1,30.10,WNW,290,1.0,11.0,77,0.00,,,0.09,meteohub,2013-02-10 00:07:00,
2013-02-09 19:12:00,16.9,10.9,30.10,WNW,295,2.0,11.0,77,0.00,,,0.09,meteohub,2013-02-10 00:12:00,
2013-02-09 19:17:00,16.9,10.9,30.10,WNW,284,1.0,7.0,77,0.00,,,0.09,meteohub,2013-02-10 00:17:00,
2013-02-09 19:22:00,16.9,10.9,30.11,WNW,302,1.0,6.0,77,0.00,,,0.09,meteohub,2013-02-10 00:22:00,
2013-02-09 19:27:00,16.9,10.6,30.11,WNW,290,1.0,8.0,76,0.00,,,0.09,meteohub,2013-02-10 00:27:00,
2013-02-09 19:32:00,16.5,10.2,30.11,NW,305,3.0,9.0,76,0.00,,,0.09,meteohub,2013-02-10 00:32:00,
2013-02-09 19:37:00,16.5,10.6,30.12,WNW,296,4.0,9.0,77,0.00,,,0.09,meteohub,2013-02-10 00:37:00,
2013-02-09 19:42:00,16.3,10.0,30.12,NW,307,2.0,6.0,76,0.00,,,0.09,meteohub,2013-02-10 00:42:00,
2013-02-09 19:47:00,16.2,10.2,30.12,WNW,301,2.0,6.0,77,0.00,,,0.09,meteohub,2013-02-10 00:47:00,
2013-02-09 19:52:00,16.2,10.2,30.12,WNW,286,4.0,8.0,77,0.00,,,0.09,meteohub,2013-02-10 00:52:00,
2013-02-09 19:57:00,16.2,9.9,30.12,NW,312,4.0,9.0,76,0.00,,,0.09,meteohub,2013-02-10 00:57:00,
2013-02-09 20:02:00,16.0,10.0,30.12,NW,319,3.0,9.0,77,0.00,,,0.09,meteohub,2013-02-10 01:02:00,
2013-02-09 20:07:00,16.0,10.0,30.13,NW,320,5.0,12.0,77,0.00,,,0.09,meteohub,2013-02-10 01:07:00,
2013-02-09 20:12:00,16.0,9.7,30.13,NW,317,5.0,12.0,76,0.00,,,0.09,meteohub,2013-02-10 01:12:00,
2013-02-09 20:17:00,15.8,9.9,30.14,NW,308,2.0,10.0,77,0.00,,,0.09,meteohub,2013-02-10 01:17:00,
2013-02-09 20:22:00,15.6,9.5,30.14,WNW,302,2.0,8.0,76,0.00,,,0.09,meteohub,2013-02-10 01:22:00,
2013-02-09 20:27:00,15.4,9.3,30.14,NW,315,5.0,8.0,76,0.00,,,0.09,meteohub,2013-02-10 01:27:00,
2013-02-09 20:32:00,15.4,9.5,30.14,NNW,331,5.0,9.0,77,0.00,,,0.09,meteohub,2013-02-10 01:32:00,
2013-02-09 20:37:00,15.4,9.3,30.14,NW,323,3.0,9.0,76,0.00,,,0.09,meteohub,2013-02-10 01:37:00,
2013-02-09 20:42:00,15.3,9.1,30.15,WNW,290,5.0,9.0,76,0.00,,,0.09,meteohub,2013-02-10 01:42:00,
2013-02-09 20:47:00,15.3,9.1,30.15,NW,311,5.0,7.0,76,0.00,,,0.09,meteohub,2013-02-10 01:47:00,
2013-02-09 20:52:00,15.1,9.1,30.16,NNW,327,2.0,7.0,77,0.00,,,0.09,meteohub,2013-02-10 01:52:00,
2013-02-09 20:57:00,15.1,9.0,30.16,NW,309,2.0,9.0,76,0.00,,,0.09,meteohub,2013-02-10 01:57:00,
2013-02-09 21:02:00,14.9,8.8,30.16,West,263,8.0,9.0,76,0.00,,,0.09,meteohub,2013-02-10 02:02:00,
2013-02-09 21:07:00,14.7,8.6,30.16,WNW,284,2.0,9.0,76,0.00,,,0.09,meteohub,2013-02-10 02:07:00,
2013-02-09 21:12:00,14.5,8.6,30.16,WNW,282,4.0,8.0,77,0.00,,,0.09,meteohub,2013-02-10 02:12:00,
2013-02-09 21:17:00,14.5,8.4,30.16,NNW,331,3.0,12.0,76,0.00,,,0.09,meteohub,2013-02-10 02:17:00,
2013-02-09 21:22:00,14.5,8.1,30.17,WNW,298,4.0,12.0,75,0.00,,,0.09,meteohub,2013-02-10 02:22:00,
2013-02-09 21:27:00,14.4,8.4,30.17,WNW,297,2.0,12.0,77,0.00,,,0.09,meteohub,2013-02-10 02:27:00,
2013-02-09 21:32:00,14.4,8.2,30.17,NW,317,1.0,8.0,76,0.00,,,0.09,meteohub,2013-02-10 02:32:00,
2013-02-09 21:37:00,14.4,7.9,30.17,NW,320,2.0,7.0,75,0.00,,,0.09,meteohub,2013-02-10 02:37:00,
2013-02-09 21:42:00,14.2,7.7,30.17,WNW,294,5.0,7.0,75,0.00,,,0.09,meteohub,2013-02-10 02:42:00,
2013-02-09 21:47:00,14.2,7.7,30.18,NW,310,3.0,9.0,75,0.00,,,0.09,meteohub,2013-02-10 02:47:00,
2013-02-09 21:52:00,14.2,7.7,30.17,NW,304,2.0,9.0,75,0.00,,,0.09,meteohub,2013-02-10 02:52:00,
2013-02-09 21:57:00,14.0,7.2,30.18,NW,309,4.0,9.0,74,0.00,,,0.09,meteohub,2013-02-10 02:57:00,
2013-02-09 22:02:00,13.8,7.3,30.18,NW,306,1.0,5.0,75,0.00,,,0.09,meteohub,2013-02-10 03:02:00,
2013-02-09 22:07:00,13.8,7.7,30.18,NNW,336,2.0,6.0,76,0.00,,,0.09,meteohub,2013-02-10 03:07:00,
2013-02-09 22:12:00,13.6,7.5,30.18,NW,308,4.0,6.0,76,0.00,,,0.09,meteohub,2013-02-10 03:12:00,
2013-02-09 22:17:00,13.6,7.5,30.18,WNW,300,2.0,7.0,76,0.00,,,0.09,meteohub,2013-02-10 03:17:00,
2013-02-09 22:22:00,13.6,7.2,30.19,NW,315,1.0,7.0,75,0.00,,,0.09,meteohub,2013-02-10 03:22:00,
2013-02-09 22:27:00,13.6,7.0,30.19,NNW,328,0.0,6.0,74,0.00,,,0.09,meteohub,2013-02-10 03:27:00,
2013-02-09 22:32:00,13.5,7.0,30.19,West,280,2.0,6.0,75,0.00,,,0.09,meteohub,2013-02-10 03:32:00,
2013-02-09 22:37:00,13.5,7.0,30.19,WNW,301,4.0,4.0,75,0.00,,,0.09,meteohub,2013-02-10 03:37:00,
2013-02-09 22:42:00,13.5,7.0,30.19,NW,304,3.0,5.0,75,0.00,,,0.09,meteohub,2013-02-10 03:42:00,
2013-02-09 22:47:00,13.5,7.3,30.19,NW,310,2.0,5.0,76,0.00,,,0.09,meteohub,2013-02-10 03:47:00,
2013-02-09 22:52:00,13.3,6.8,30.19,NW,308,3.0,5.0,75,0.00,,,0.09,meteohub,2013-02-10 03:52:00,
2013-02-09 22:57:00,13.3,7.2,30.20,WNW,294,3.0,6.0,76,0.00,,,0.09,meteohub,2013-02-10 03:57:00,
2013-02-09 23:02:00,13.3,6.8,30.20,WNW,286,2.0,6.0,75,0.00,,,0.09,meteohub,2013-02-10 04:02:00,
2013-02-09 23:07:00,13.3,6.8,30.20,WNW,300,2.0,6.0,75,0.00,,,0.09,meteohub,2013-02-10 04:07:00,
2013-02-09 23:12:00,13.3,6.8,30.20,WNW,298,4.0,10.0,75,0.00,,,0.09,meteohub,2013-02-10 04:12:00,
2013-02-09 23:17:00,13.3,6.8,30.20,WNW,288,1.0,10.0,75,0.00,,,0.09,meteohub,2013-02-10 04:17:00,
2013-02-09 23:22:00,13.3,6.6,30.21,WNW,292,1.0,10.0,74,0.00,,,0.09,meteohub,2013-02-10 04:22:00,
2013-02-09 23:27:00,13.3,6.6,30.21,NW,317,1.0,5.0,74,0.00,,,0.09,meteohub,2013-02-10 04:27:00,
2013-02-09 23:32:00,13.3,6.6,30.21,NW,307,2.0,5.0,74,0.00,,,0.09,meteohub,2013-02-10 04:32:00,
2013-02-09 23:37:00,13.3,6.6,30.22,WNW,297,4.0,7.0,74,0.00,,,0.09,meteohub,2013-02-10 04:37:00,
2013-02-09 23:43:00,13.3,6.6,30.22,NW,324,2.0,7.0,74,0.00,,,0.09,meteohub,2013-02-10 04:43:00,
2013-02-09 23:48:00,13.3,6.3,30.22,NW,322,3.0,4.0,73,0.00,,,0.09,meteohub,2013-02-10 04:48:00,
2013-02-09 23:53:00,13.1,6.4,30.22,WNW,284,2.0,4.0,74,0.00,,,0.09,meteohub,2013-02-10 04:53:00,
2013-02-09 23:58:00,12.9,5.9,30.22,NW,309,3.0,4.0,73,0.00,,,0.09,meteohub,2013-02-10 04:58:00,